This is the latest recevied weather packets stored in our database for station/object W4TTU-1. If no packets are shown the sender has not sent any weather packets the latest 10 day(s).
| Time | Temp. | Humidity | Pressure | Rain* | Wind** | Luminosity | Snow |
|---|---|---|---|---|---|---|---|
| 1778197823 | 24.44° C | 40% | 843.2 hPa | 5.08 mm | - | - | - |
| 1778196022 | 21.67° C | 41% | 843.4 hPa | 5.08 mm | - | - | - |
| 1778195121 | 21.11° C | 41% | 843.5 hPa | 5.08 mm | - | - | - |
| 1778192420 | 20.56° C | 39% | 844.1 hPa | 5.08 mm | - | - | - |
| 1778191519 | 21.11° C | 38% | 844 hPa | 5.08 mm | - | - | - |
| 1778189718 | 22.78° C | 37% | 844.4 hPa | 2.79 mm | - | - | - |
| 1778188818 | 22.78° C | 37% | 844.1 hPa | 2.79 mm | - | - | - |
| 1778187917 | 23.33° C | 36% | 844.1 hPa | 2.79 mm | - | - | - |
| 1778187017 | 23.89° C | 36% | 844.3 hPa | 2.79 mm | - | - | - |
| 1778186116 | 24.44° C | 37% | 844.2 hPa | 2.79 mm | - | - | - |
| 1778185216 | 24.44° C | 35% | 843.8 hPa | 2.79 mm | - | - | - |
| 1778184315 | 25° C | 35% | 843.9 hPa | 2.79 mm | - | - | - |
| 1778183415 | 25.56° C | 34% | 843.6 hPa | 2.79 mm | - | - | - |
| 1778182514 | 26.11° C | 32% | 843.4 hPa | 2.79 mm | - | - | - |
| 1778181614 | 26.67° C | 31% | 843.4 hPa | 1.02 mm | - | - | - |
| 1778180713 | 26.67° C | 31% | 843.2 hPa | 0 mm | - | - | - |
| 1778179813 | 26.11° C | 32% | 843.1 hPa | 0 mm | - | - | - |
| 1778178912 | 25.56° C | 33% | 843.2 hPa | 0 mm | - | - | - |
| 1778178011 | 24.44° C | 33% | 843.2 hPa | 0 mm | - | - | - |
| 1778176210 | 22.78° C | 34% | 843.4 hPa | 0 mm | - | - | - |
| 1778175310 | 21.11° C | 35% | 843.5 hPa | 0 mm | - | - | - |
| 1778173509 | 18.33° C | 36% | 843.5 hPa | 0 mm | - | - | - |
| 1778172608 | 16.67° C | 37% | 843.7 hPa | 0 mm | - | - | - |
| 1778171708 | 15° C | 37% | 843.9 hPa | 0 mm | - | - | - |
| 1778170807 | 13.33° C | 35% | 843.9 hPa | 0 mm | - | - | - |
* Rain since midnight (hover to see other rain measurements)
** Current wind speed in m/s (hover to see current wind gust speed)